Change the Weather History Date:

Monday, July 9, 2012

  Actual Average Record
Temperature  
Mean Temperature 83 °F -  
Max Temperature 98 °F 96 °F 96 °F (2013)
Min Temperature 68 °F 64 °F 64 °F (2014)
Cooling Degree Days 18    
Growing Degree Days 33 (Base 50)    
Moisture  
Dew Point 52 °F    
Average Humidity 34    
Maximum Humidity 73    
Minimum Humidity 16    
Precipitation  
Precipitation 0.00 in - - ()
Sea Level Pressure  
Sea Level Pressure 30.09 in    
Wind  
Wind Speed 7 mph ()    
Max Wind Speed 24 mph    
Max Gust Speed 30 mph    
Visibility 10.0 miles    
Events Thunderstorm    
Averages and records for this station are not official NWS values.
T = Trace of Precipitation, MM = Missing Value Source: Averaged Metar Reports

Daily Weather History Graph

Daily Weather History Graph

Search for Another Location

Airport or City:

Trip Planner

Search our weather history database for the weather conditions in past years. The results will help you decide how hot, cold, wet, or windy it might be!

Date:

Astronomy

Jul. 09, 2012 Rise Set
Actual Time 6:15 AM MDT 8:24 PM MDT
Civil Twilight 5:47 AM MDT 8:52 PM MDT
Nautical Twilight 5:13 AM MDT 9:26 PM MDT
Astronomical Twilight 4:36 AM MDT 10:03 PM MDT
Moon No Moon Rise 12:20 PM MDT (7/9)
Length of Visible Light 15h 04m
Length of Day
14h 08m
Waning Gibbous, 63% of the Moon is Illuminated
Jul 9
Waning Gibbous
Jul 10
Last Quarter
Jul 18
New
Jul 26
First Quarter
Aug 1
Full

Hourly Weather History & Observations

Time (MDT) Temp. Heat Index Dew Point Humidity Pressure Visibility Wind Dir Wind Speed Gust Speed Precip Events Conditions
12:15 AM 80.6 °F 80.3 °F 53.6 °F 39% 30.12 in 10.0 mi West 4.6 mph - N/A   Clear
12:35 AM 80.6 °F 80.3 °F 53.6 °F 39% 30.12 in 10.0 mi WNW 5.8 mph - N/A   Clear
12:55 AM 78.8 °F - 55.4 °F 44% 30.12 in 10.0 mi West 5.8 mph - N/A   Clear
1:15 AM 78.8 °F - 55.4 °F 44% 30.12 in 10.0 mi West 6.9 mph - N/A   Clear
1:55 AM 77.0 °F - 55.4 °F 47% 30.11 in 10.0 mi WNW 13.8 mph - N/A   Clear
2:15 AM 78.8 °F - 55.4 °F 44% 30.12 in 10.0 mi NW 10.4 mph - N/A   Clear
2:35 AM 77.0 °F - 55.4 °F 47% 30.12 in 10.0 mi WNW 10.4 mph - N/A   Clear
4:15 AM 73.4 °F - 55.4 °F 53% 30.11 in 10.0 mi WNW 9.2 mph - N/A   Clear
4:35 AM 73.4 °F - 55.4 °F 53% 30.11 in 10.0 mi WNW 6.9 mph - N/A   Clear
4:55 AM 73.4 °F - 55.4 °F 53% 30.11 in 10.0 mi WNW 8.1 mph - N/A   Clear
5:15 AM 73.4 °F - 55.4 °F 53% 30.11 in 10.0 mi WNW 8.1 mph - N/A   Clear
5:35 AM 73.4 °F - 55.4 °F 53% 30.11 in 10.0 mi WNW 6.9 mph - N/A   Clear
5:55 AM 73.4 °F - 55.4 °F 53% 30.12 in 10.0 mi East 4.6 mph - N/A   Clear
6:15 AM 68.0 °F - 57.2 °F 68% 30.12 in 10.0 mi Calm Calm - N/A   Clear
6:35 AM 68.0 °F - 59.0 °F 73% 30.12 in 10.0 mi Calm Calm - N/A   Clear
6:55 AM 69.8 °F - 59.0 °F 68% 30.13 in 10.0 mi SE 5.8 mph - N/A   Clear
7:15 AM 71.6 °F - 59.0 °F 64% 30.14 in 10.0 mi SE 6.9 mph - N/A   Clear
7:35 AM 73.4 °F - 59.0 °F 61% 30.14 in 10.0 mi South 5.8 mph - N/A   Clear
7:55 AM 75.2 °F - 59.0 °F 57% 30.14 in 10.0 mi Calm Calm - N/A   Clear
8:15 AM 78.8 °F - 57.2 °F 47% 30.15 in 10.0 mi WNW 3.5 mph - N/A   Clear
8:35 AM 78.8 °F - 57.2 °F 47% 30.16 in 10.0 mi Calm Calm - N/A   Clear
8:55 AM 80.6 °F 80.8 °F 57.2 °F 45% 30.15 in 10.0 mi Calm Calm - N/A   Clear
9:15 AM 80.6 °F 81.1 °F 59.0 °F 48% 30.16 in 10.0 mi NNE 3.5 mph - N/A   Clear
9:35 AM 82.4 °F 82.5 °F 59.0 °F 45% 30.16 in 10.0 mi Calm Calm - N/A   Clear
9:55 AM 84.2 °F 83.5 °F 57.2 °F 40% 30.16 in 10.0 mi NNE 3.5 mph - N/A   Clear
10:15 AM 87.8 °F 85.7 °F 53.6 °F 31% 30.16 in 10.0 mi ESE 9.2 mph - N/A   Clear
10:35 AM 89.6 °F 87.3 °F 53.6 °F 29% 30.15 in 10.0 mi SE 8.1 mph - N/A   Clear
10:55 AM 89.6 °F 87.3 °F 53.6 °F 29% 30.15 in 10.0 mi ESE 4.6 mph - N/A   Clear
11:15 AM 91.4 °F - 51.8 °F 26% 30.15 in 10.0 mi SE 5.8 mph - N/A   Clear
11:35 AM 93.2 °F - 51.8 °F 24% 30.14 in 10.0 mi SSE 6.9 mph 16.1 mph N/A   Clear
12:15 PM 93.2 °F - 50.0 °F 23% 30.13 in 10.0 mi ENE 5.8 mph - N/A   Clear
12:35 PM 95.0 °F - 50.0 °F 22% 30.13 in 10.0 mi South 5.8 mph - N/A   Clear
12:55 PM 95.0 °F - 50.0 °F 22% 30.11 in 10.0 mi Calm Calm - N/A   Clear
1:15 PM 96.8 °F - 50.0 °F 20% 30.11 in 10.0 mi SSE 8.1 mph - N/A   Clear
1:35 PM 96.8 °F - 48.2 °F 19% 30.10 in 10.0 mi WSW 6.9 mph - N/A   Scattered Clouds
1:55 PM 96.8 °F - 46.4 °F 18% 30.09 in 10.0 mi North 4.6 mph - N/A   Scattered Clouds
2:15 PM 96.8 °F - 46.4 °F 18% 30.08 in 10.0 mi Calm Calm - N/A   Scattered Clouds
2:35 PM 96.8 °F - 46.4 °F 18% 30.07 in 10.0 mi ESE 6.9 mph - N/A   Clear
2:55 PM 96.8 °F - 46.4 °F 18% 30.06 in 10.0 mi North 10.4 mph - N/A   Mostly Cloudy
3:15 PM 96.8 °F - 44.6 °F 17% 30.05 in 10.0 mi NW 13.8 mph 17.3 mph N/A   Overcast
3:35 PM 98.6 °F - 44.6 °F 16% 30.05 in 10.0 mi WSW 6.9 mph 16.1 mph N/A   Scattered Clouds
3:55 PM 98.6 °F - 44.6 °F 16% 30.04 in 10.0 mi WNW 9.2 mph - N/A   Clear
4:15 PM 98.6 °F - 46.4 °F 17% 30.03 in 10.0 mi NNW 12.7 mph 19.6 mph N/A   Clear
4:35 PM 98.6 °F - 46.4 °F 17% 30.02 in 10.0 mi NW 10.4 mph - N/A   Clear
4:55 PM 98.6 °F - 50.0 °F 19% 30.02 in 10.0 mi North 13.8 mph 17.3 mph N/A   Scattered Clouds
5:15 PM 98.6 °F - 46.4 °F 17% 30.01 in 10.0 mi WNW 8.1 mph - N/A   Scattered Clouds
5:35 PM 98.6 °F - 46.4 °F 17% 30.01 in 10.0 mi NW 9.2 mph 17.3 mph N/A   Clear
5:55 PM 98.6 °F - 46.4 °F 17% 30.01 in 10.0 mi WNW 6.9 mph 17.3 mph N/A   Clear
6:15 PM 98.6 °F - 46.4 °F 17% 30.00 in 10.0 mi NW 10.4 mph 20.7 mph N/A   Scattered Clouds
6:35 PM 96.8 °F - 46.4 °F 18% 29.99 in 10.0 mi WNW 16.1 mph 21.9 mph N/A   Scattered Clouds
6:55 PM 96.8 °F - 46.4 °F 18% 29.99 in 10.0 mi NW 9.2 mph 12.7 mph N/A   Clear
7:15 PM 96.8 °F - 48.2 °F 19% 30.01 in 10.0 mi NNW 15.0 mph 19.6 mph N/A   Clear
7:35 PM 95.0 °F - 48.2 °F 20% 30.01 in 10.0 mi NW 17.3 mph - N/A   Clear
7:55 PM 93.2 °F - 48.2 °F 21% 30.02 in 10.0 mi NW 16.1 mph 20.7 mph N/A   Clear
8:15 PM 91.4 °F - 48.2 °F 23% 30.02 in 10.0 mi NW 12.7 mph - N/A   Clear
8:35 PM 89.6 °F - 50.0 °F 26% 30.03 in 10.0 mi NW 12.7 mph 18.4 mph N/A   Clear
8:55 PM 87.8 °F - 50.0 °F 27% 30.05 in 10.0 mi NW 9.2 mph - N/A   Clear
9:15 PM 86.0 °F - 51.8 °F 31% 30.06 in 10.0 mi NNW 4.6 mph - N/A Thunderstorm Thunderstorm
9:35 PM 86.0 °F - 51.8 °F 31% 30.07 in 10.0 mi ESE 5.8 mph - N/A   Mostly Cloudy
9:55 PM 86.0 °F - 50.0 °F 29% 30.08 in 10.0 mi NNW 4.6 mph - N/A   Scattered Clouds
10:15 PM 86.0 °F - 50.0 °F 29% 30.09 in 10.0 mi Calm Calm - N/A   Clear
10:35 PM 82.4 °F - 51.8 °F 35% 30.09 in 10.0 mi SE 8.1 mph - N/A   Scattered Clouds
10:55 PM 84.2 °F - 50.0 °F 30% 30.10 in 10.0 mi SE 9.2 mph - N/A   Scattered Clouds
11:15 PM 82.4 °F 81.4 °F 53.6 °F 37% 30.11 in 10.0 mi ESE 17.3 mph 23.0 mph N/A Thunderstorm Clear
11:35 PM 80.6 °F 80.5 °F 55.4 °F 42% 30.12 in 10.0 mi ESE 24.2 mph 29.9 mph N/A Thunderstorm Clear
11:55 PM 78.8 °F - 55.4 °F 44% 30.12 in 10.0 mi ESE 15.0 mph 26.5 mph N/A   Clear